| time (UTC) | temp F | wind direction | speed knots | gust knots | rain 1hr in | rain 24hr in | rain mn in | humidity % | barometer mb |
| 20260509113026 | 39 | 265 | 0.0 | 0.9 | 0.00 | 0.00 | 0.00 | 62 | 1011.4 |
| 20260509111520 | 39 | 175 | 0.0 | 1.7 | 0.00 | 0.00 | 0.00 | 63 | 1011.5 |
| 20260509110018 | 39 | 137 | 0.0 | 0.0 | 0.00 | 0.00 | 0.00 | 64 | 1011.4 |
| 20260509104517 | 38 | 129 | 0.0 | 0.0 | 0.00 | 0.00 | 0.00 | 64 | 1011.3 |
| 20260509103016 | 38 | 103 | 0.0 | 0.0 | 0.00 | 0.00 | 0.00 | 65 | 1011.1 |
| 20260509101522 | 38 | 145 | 0.0 | 0.0 | 0.00 | 0.00 | 0.00 | 66 | 1011.0 |
| 20260509100013 | 37 | 156 | 0.0 | 0.0 | 0.00 | 0.00 | 0.00 | 67 | 1010.9 |
| 20260509094512 | 37 | 111 | 0.0 | 0.0 | 0.00 | 0.00 | 0.00 | 68 | 1010.7 |
| 20260509093012 | 37 | 160 | 0.0 | 0.0 | 0.00 | 0.00 | 0.00 | 68 | 1010.4 |
| 20260509091512 | 38 | 133 | 0.0 | 1.7 | 0.00 | 0.00 | 0.00 | 68 | 1010.5 |
| 20260509090013 | 38 | 136 | 0.0 | 0.0 | 0.00 | 0.00 | 0.00 | 67 | 1010.5 |
| 20260509084512 | 38 | 126 | 0.0 | 0.0 | 0.00 | 0.00 | 0.00 | 67 | 1010.5 |
| 20260509083028 | 37 | 105 | 0.0 | 0.0 | 0.00 | 0.00 | 0.00 | 68 | 1010.5 |
| 20260509081511 | 37 | 171 | 0.0 | 0.0 | 0.00 | 0.00 | 0.00 | 67 | 1010.7 |
| 20260509080010 | 37 | 112 | 0.0 | 0.0 | 0.00 | 0.00 | 0.00 | 65 | 1010.8 |
| 20260509074509 | 37 | 210 | 0.0 | 0.0 | 0.00 | 0.00 | 0.00 | 66 | 1010.7 |
| 20260509073015 | 37 | 213 | 0.0 | 0.0 | 0.00 | 0.00 | 0.00 | 64 | 1010.8 |
| 20260509071508 | 37 | 213 | 0.0 | 0.0 | 0.00 | 0.00 | 0.00 | 63 | 1010.8 |
| 20260509070007 | 37 | 213 | 0.0 | 0.0 | 0.00 | 0.00 | 0.00 | 62 | 1010.7 |
| 20260509064506 | 37 | 213 | 0.0 | 0.0 | 0.00 | 0.00 | 0.00 | 61 | 1010.7 |
| 20260509063018 | 37 | 213 | 0.0 | 0.9 | 0.00 | 0.00 | 0.00 | 62 | 1010.9 |
| 20260509061505 | 37 | 260 | 0.0 | 0.0 | 0.00 | 0.00 | 0.00 | 61 | 1010.9 |
| 20260509060004 | 38 | 248 | 0.0 | 0.0 | 0.00 | 0.00 | 0.00 | 60 | 1010.8 |
| 20260509054501 | 38 | 240 | 0.0 | 0.0 | 0.00 | 0.00 | 0.00 | 60 | 1010.7 |
| 20260509053134 | 38 | 293 | 0.0 | 0.0 | 0.00 | 0.00 | 0.00 | 59 | 1010.7 |
| 20260509051600 | 38 | 293 | 0.0 | 0.0 | 0.00 | 0.00 | 0.00 | 59 | 1010.7 |
| 20260509050058 | 38 | 293 | 0.0 | 0.0 | 0.00 | 0.00 | 0.00 | 58 | 1010.6 |
| 20260509044649 | 38 | 317 | 0.0 | 0.0 | 0.00 | 0.00 | 0.00 | 59 | 1010.7 |
| 20260509043139 | 39 | 317 | 0.0 | 0.0 | 0.00 | 0.00 | 0.00 | 58 | 1010.7 |
| 20260509041557 | 39 | 317 | 0.0 | 0.0 | 0.00 | 0.00 | 0.00 | 57 | 1010.6 |
| 20260509040059 | 39 | 303 | 0.0 | 0.0 | 0.00 | 0.00 | 0.00 | 56 | 1010.5 |
| 20260509034553 | 39 | 303 | 0.0 | 0.0 | 0.00 | 0.00 | 0.00 | 57 | 1010.3 |
| 20260509033052 | 39 | 303 | 0.0 | 0.0 | 0.00 | 0.00 | 0.00 | 58 | 1010.2 |
| 20260509031559 | 39 | 303 | 0.0 | 0.0 | 0.00 | 0.00 | 0.00 | 57 | 1010.1 |
| 20260509030109 | 39 | 303 | 0.0 | 0.0 | 0.00 | 0.00 | 0.00 | 57 | 1010.1 |
| 20260509024550 | 39 | 303 | 0.0 | 0.0 | 0.00 | 0.00 | 0.00 | 57 | 1010.0 |
| 20260509023057 | 39 | 303 | 0.0 | 0.0 | 0.00 | 0.00 | 0.00 | 57 | 1010.0 |
| 20260509021553 | 39 | 303 | 0.0 | 0.0 | 0.00 | 0.00 | 0.00 | 57 | 1009.9 |
| 20260509014554 | 40 | 303 | 0.0 | 0.0 | 0.00 | 0.00 | 0.00 | 57 | 1009.7 |
| 20260509013048 | 40 | 303 | 0.0 | 0.0 | 0.00 | 0.00 | 0.00 | 58 | 1009.5 |
| 20260509011548 | 39 | 303 | 0.0 | 0.0 | 0.00 | 0.00 | 0.00 | 59 | 1009.3 |
| 20260509010045 | 38 | 303 | 0.0 | 0.0 | 0.00 | 0.00 | 0.00 | 60 | 1009.1 |
| 20260509004553 | 38 | 303 | 0.0 | 0.0 | 0.00 | 0.00 | 0.00 | 61 | 1009.1 |
| 20260509003050 | 39 | 303 | 0.0 | 0.0 | 0.00 | 0.00 | 0.00 | 60 | 1008.8 |
| 20260509001541 | 40 | 303 | 0.0 | 0.0 | 0.00 | 0.00 | 0.00 | 60 | 1008.7 |
| 20260509000041 | 41 | 303 | 0.0 | 0.0 | 0.00 | 0.00 | 0.00 | 59 | 1008.7 |
| 20260508234542 | 42 | 303 | 0.0 | 0.0 | 0.00 | 0.00 | 0.00 | 55 | 1008.7 |
| 20260508233041 | 42 | 313 | 0.0 | 0.0 | 0.00 | 0.00 | 0.00 | 54 | 1008.5 |
| 20260508231538 | 42 | 315 | 0.0 | 0.0 | 0.00 | 0.00 | 0.00 | 54 | 1008.4 |
| 20260508230038 | 43 | 296 | 0.0 | 0.0 | 0.00 | 0.00 | 0.00 | 54 | 1008.5 |
| 20260508224549 | 44 | 267 | 0.0 | 3.5 | 0.00 | 0.00 | 0.00 | 51 | 1008.3 |
| 20260508223046 | 44 | 269 | 0.0 | 1.7 | 0.00 | 0.00 | 0.00 | 54 | 1008.3 |
| 20260508221535 | 43 | 267 | 0.0 | 2.6 | 0.00 | 0.00 | 0.00 | 55 | 1008.2 |
| 20260508220042 | 43 | 314 | 0.0 | 0.9 | 0.00 | 0.00 | 0.00 | 57 | 1008.2 |
| 20260508214534 | 43 | 292 | 0.0 | 0.0 | 0.00 | 0.00 | 0.00 | 56 | 1008.1 |
| 20260508213034 | 43 | 269 | 0.0 | 1.7 | 0.00 | 0.00 | 0.00 | 56 | 1008.1 |
| 20260508211534 | 43 | 301 | 0.0 | 0.9 | 0.00 | 0.00 | 0.00 | 60 | 1008.0 |
| 20260508210033 | 42 | 329 | 0.0 | 5.2 | 0.00 | 0.00 | 0.00 | 59 | 1007.8 |
| 20260508204533 | 43 | 297 | 0.0 | 3.5 | 0.00 | 0.00 | 0.00 | 56 | 1007.8 |
| 20260508203030 | 44 | 289 | 0.0 | 0.0 | 0.00 | 0.00 | 0.00 | 55 | 1007.6 |
| 20260508201531 | 44 | 208 | 0.0 | 12.2 | 0.00 | 0.00 | 0.00 | 53 | 1007.5 |
| 20260508200029 | 44 | 271 | 0.0 | 9.6 | 0.00 | 0.00 | 0.00 | 54 | 1007.5 |
| 20260508194535 | 44 | 317 | 0.0 | 2.6 | 0.00 | 0.00 | 0.00 | 57 | 1007.6 |
| 20260508193127 | 43 | 291 | 0.0 | 7.0 | 0.00 | 0.00 | 0.00 | 57 | 1007.5 |
| 20260508191532 | 43 | 288 | 0.0 | 7.8 | 0.00 | 0.00 | 0.00 | 59 | 1007.5 |
| 20260508190024 | 42 | 286 | 0.0 | 4.3 | 0.00 | 0.00 | 0.00 | 59 | 1007.5 |
| 20260508184525 | 42 | 303 | 0.0 | 4.3 | 0.00 | 0.00 | 0.00 | 61 | 1007.4 |
| 20260508183030 | 41 | 291 | 0.0 | 6.1 | 0.00 | 0.00 | 0.00 | 60 | 1007.5 |
| 20260508181523 | 42 | 294 | 0.0 | 0.9 | 0.00 | 0.00 | 0.00 | 58 | 1007.5 |
| 20260508180026 | 43 | 287 | 0.0 | 3.5 | 0.00 | 0.00 | 0.00 | 59 | 1007.3 |
| 20260508174521 | 42 | 298 | 0.0 | 7.0 | 0.00 | 0.00 | 0.00 | 58 | 1007.2 |
| 20260508173021 | 41 | 286 | 0.0 | 0.0 | 0.00 | 0.00 | 0.00 | 61 | 1007.2 |
| 20260508171522 | 42 | 305 | 0.0 | 7.8 | 0.00 | 0.00 | 0.00 | 59 | 1007.3 |
| 20260508170020 | 41 | 258 | 0.0 | 0.9 | 0.00 | 0.00 | 0.00 | 63 | 1007.4 |
| 20260508164518 | 42 | 331 | 0.0 | 1.7 | 0.00 | 0.00 | 0.00 | 62 | 1007.2 |
| 20260508163028 | 42 | 283 | 0.0 | 0.9 | 0.00 | 0.00 | 0.00 | 65 | 1007.1 |
| 20260508161518 | 42 | 324 | 0.0 | 1.7 | 0.00 | 0.00 | 0.00 | 65 | 1007.0 |
| 20260508160021 | 43 | 287 | 0.0 | 3.5 | 0.00 | 0.00 | 0.00 | 68 | 1007.2 |
| 20260508154517 | 41 | 281 | 0.0 | 1.7 | 0.00 | 0.00 | 0.00 | 70 | 1007.2 |
| 20260508153014 | 41 | 290 | 0.0 | 0.0 | 0.00 | 0.00 | 0.00 | 70 | 1007.2 |
| 20260508151513 | 40 | 317 | 0.0 | 0.9 | 0.00 | 0.00 | 0.00 | 74 | 1007.1 |
| 20260508150033 | 39 | 293 | 0.0 | 0.0 | 0.00 | 0.00 | 0.00 | 77 | 1007.3 |
| 20260508144510 | 40 | 269 | 0.0 | 0.9 | 0.00 | 0.00 | 0.00 | 72 | 1007.1 |
| 20260508143011 | 41 | 294 | 0.0 | 0.0 | 0.00 | 0.00 | 0.00 | 75 | 1007.1 |
| 20260508141508 | 40 | 292 | 0.0 | 2.6 | 0.00 | 0.00 | 0.00 | 74 | 1007.1 |
| 20260508140007 | 40 | 290 | 0.0 | 5.2 | 0.00 | 0.00 | 0.00 | 73 | 1007.1 |
| 20260508134502 | 39 | 291 | 0.0 | 0.9 | 0.00 | 0.00 | 0.00 | 77 | 1007.2 |
| 20260508133008 | 39 | 297 | 0.0 | 7.0 | 0.00 | 0.00 | 0.00 | 77 | 1007.1 |
| 20260508131502 | 38 | 296 | 0.0 | 0.9 | 0.00 | 0.00 | 0.00 | 77 | 1007.0 |
| 20260508130001 | 38 | 299 | 0.0 | 2.6 | 0.00 | 0.00 | 0.00 | 77 | 1007.0 |
| 20260508124600 | 38 | 300 | 0.0 | 1.7 | 0.00 | 0.00 | 0.00 | 77 | 1007.0 |
| 20260508123056 | 38 | 300 | 0.0 | 1.7 | 0.00 | 0.00 | 0.00 | 76 | 1006.9 |
| 20260508121555 | 38 | 304 | 0.0 | 0.0 | 0.00 | 0.00 | 0.00 | 77 | 1006.8 |
| 20260508120052 | 37 | 228 | 0.0 | 0.0 | 0.00 | 0.00 | 0.00 | 79 | 1006.8 |
| 20260508114550 | 37 | 296 | 0.0 | 0.0 | 0.00 | 0.00 | 0.00 | 79 | 1006.7 |